Location: Владивосток
(43.1151°N, 131.8856°E)
Time: 17:30:02
(UTC+10:00)

SPROUT - Pass Details

Date: 04 July 2022
Orbit: 588 x 598 km, 97.9° (Epoch: 09 August)

Event Time Altitude Azimuth Distance (km) Brightness Sun altitude
Exits shadow 01:10:04 23° 88° (E) 1,278 ? -23.9°
Maximum altitude 01:10:58 25° 67° (ENE) 1,217 ? -23.9°
Drops below altitude 10° 01:14:22 10° 13° (NNE) 1,926 ? -24.0°
Sets 01:16:49 0° 360° (N) 2,833 ? -24.0°
